period_start,C,m1,H,J0,J1,J2,J3,J4,J5,JA,JB,JC,JD,JJ,JK,JN,#
2016-06-21 00:02:57,0.02,4.76,0.00,23.44,27.75,30.68,14.48,46.03,1012.60,2033.81,2263.33,1988.00,2258.31,600.38,593.15,50.50,0000 0000 0000 0000 000000
2016-06-21 00:07:59,-0.07,4.76,0.00,23.62,27.81,30.70,14.26,45.75,1012.33,2033.13,2263.03,1987.99,2258.01,599.30,591.51,50.55,0000 0000 0000 0000 000000
2016-06-21 00:13:00,0.01,4.76,0.00,23.67,27.87,30.74,14.40,45.79,1012.26,2033.00,2263.00,1987.78,2257.98,600.21,592.36,50.60,0000 0000 0000 0000 000000
2016-06-21 00:18:01,0.05,4.76,0.00,23.74,27.92,30.78,14.31,45.77,1012.23,2032.98,2262.81,1987.11,2257.53,599.75,591.85,50.65,0000 0000 0000 0000 000000
2016-06-21 00:23:02,0.02,4.76,0.00,23.76,27.98,30.83,14.50,46.24,1012.22,2032.89,2262.13,1987.00,2257.04,600.35,592.28,50.70,0000 0000 0000 0000 000000
2016-06-21 00:28:04,-0.07,4.76,0.00,23.80,28.03,30.87,14.41,45.90,1012.10,2032.28,2262.00,1986.96,2256.99,599.86,591.68,50.75,0000 0000 0000 0000 000000
2016-06-21 00:33:05,0.02,4.76,0.00,23.79,28.07,30.90,14.31,45.73,1011.78,2032.01,2261.95,1986.54,2256.80,599.48,591.13,50.80,0000 0000 0000 0000 000000
2016-06-21 00:38:06,0.05,4.76,0.00,23.83,28.12,30.93,14.35,45.97,1011.76,2032.00,2261.40,1986.05,2256.14,600.22,591.77,50.85,0000 0000 0000 0000 000000
2016-06-21 00:43:07,0.01,4.76,0.00,23.87,28.16,30.97,14.27,45.58,1011.73,2032.00,2261.03,1986.00,2256.00,599.61,591.12,50.90,0000 0000 0000 0000 000000
2016-06-21 00:48:09,-0.00,4.76,0.00,23.89,28.20,31.00,14.40,46.07,1011.73,2031.93,2260.98,1985.98,2255.98,600.14,591.30,50.95,0000 0000 0000 0000 000000
2016-06-21 00:53:10,-0.02,4.76,0.00,23.91,28.24,31.02,14.46,46.06,1011.72,2031.58,2260.86,1985.88,2255.74,599.92,591.40,51.00,0000 0000 0000 0000 000000
2016-06-21 00:58:11,0.01,4.76,0.00,23.94,28.28,31.03,14.42,46.04,1011.66,2031.08,2260.59,1985.32,2255.22,599.82,591.20,51.05,0000 0000 0000 0000 000000
2016-06-21 01:03:12,0.02,4.76,0.00,23.98,28.31,31.05,14.30,45.83,1011.41,2031.00,2260.05,1985.01,2255.01,600.02,591.15,51.10,0000 0000 0000 0000 000000
2016-06-21 01:08:14,0.00,4.76,0.00,24.02,28.34,31.07,14.36,45.84,1011.29,2031.00,2260.00,1985.00,2254.99,600.14,591.08,51.15,0000 0000 0000 0000 000000
2016-06-21 01:13:15,0.00,4.76,0.00,24.02,28.37,31.10,14.27,46.02,1011.26,2030.98,2259.94,1984.98,2254.92,599.51,590.46,51.20,0000 0000 0000 0000 000000
2016-06-21 01:18:16,0.02,4.76,0.00,24.06,28.41,31.11,14.46,46.28,1011.24,2030.85,2259.64,1984.91,2254.31,600.30,591.08,51.25,0000 0000 0000 0000 000000
2016-06-21 01:23:17,-0.06,4.76,0.00,24.09,28.43,31.13,14.38,45.82,1011.19,2030.40,2259.52,1984.74,2254.06,599.94,590.63,51.30,0000 0000 0000 0000 000000
2016-06-21 01:28:19,0.03,4.76,0.00,24.13,28.46,31.14,14.30,45.93,1011.20,2030.08,2259.20,1984.16,2254.00,599.64,590.33,51.35,0000 0000 0000 0000 000000
2016-06-21 01:33:20,0.00,4.76,0.00,24.18,28.48,31.14,14.35,45.82,1011.10,2030.01,2259.12,1984.05,2254.00,599.42,589.88,51.41,0000 0000 0000 0000 000000
2016-06-21 01:38:21,0.00,4.76,0.00,24.19,28.50,31.16,14.41,46.09,1010.97,2030.00,2259.01,1984.00,2254.00,600.65,591.04,51.46,0000 0000 0000 0000 000000
2016-06-21 01:43:23,0.00,4.76,0.00,24.25,28.52,31.16,14.39,46.08,1010.81,2030.00,2258.99,1984.00,2253.94,600.36,590.48,51.51,0000 0000 0000 0000 000000
2016-06-21 01:48:24,0.01,4.76,0.00,24.28,28.55,31.19,14.42,46.12,1010.78,2029.99,2258.94,1983.99,2253.65,600.37,590.52,51.56,0000 0000 0000 0000 000000
2016-06-21 01:53:25,0.02,4.76,0.00,24.30,28.57,31.20,14.27,45.94,1010.76,2029.98,2258.57,1983.98,2253.11,599.73,589.73,51.61,0000 0000 0000 0000 000000
2016-06-21 01:58:27,0.01,4.76,0.00,24.32,28.59,31.20,14.28,45.80,1010.76,2029.92,2258.16,1983.94,2253.01,600.04,590.02,51.66,0000 0000 0000 0000 000000
2016-06-21 02:03:28,0.01,4.76,0.00,24.35,28.61,31.21,14.37,46.15,1010.76,2029.79,2258.01,1983.52,2253.00,600.38,590.32,51.71,0000 0000 0000 0000 000000
2016-06-21 02:08:29,0.01,4.76,0.00,24.38,28.62,31.22,14.38,46.04,1010.74,2029.62,2257.99,1983.08,2252.98,600.20,590.15,51.76,0000 0000 0000 0000 000000
2016-06-21 02:13:31,-0.02,4.76,0.00,24.43,28.64,31.23,14.33,46.10,1010.69,2029.32,2257.81,1983.01,2252.83,600.02,589.71,51.81,0000 0000 0000 0000 000000
2016-06-21 02:18:32,0.01,4.76,0.00,24.46,28.66,31.24,14.39,46.11,1010.37,2029.05,2257.28,1983.00,2252.21,599.88,589.39,51.86,0000 0000 0000 0000 000000
2016-06-21 02:23:33,0.00,4.76,0.00,24.50,28.67,31.26,14.30,45.86,1010.30,2029.00,2257.03,1983.00,2252.02,599.67,589.17,51.91,0000 0000 0000 0000 000000
2016-06-21 02:28:35,0.00,4.76,0.00,24.51,28.70,31.27,14.30,45.85,1010.27,2029.00,2257.00,1982.98,2252.00,600.10,589.35,51.96,0000 0000 0000 0000 000000
2016-06-21 02:33:36,0.00,4.76,0.00,24.52,28.71,31.29,14.36,46.03,1010.27,2029.00,2257.00,1982.97,2252.00,599.89,589.25,52.01,0000 0000 0000 0000 000000
2016-06-21 02:38:38,0.01,4.76,0.00,24.55,28.73,31.30,14.39,46.08,1010.26,2029.00,2256.95,1982.84,2251.98,600.14,589.46,52.06,0000 0000 0000 0000 000000
2016-06-21 02:43:39,0.02,4.76,0.00,24.57,28.75,31.31,14.31,46.07,1010.16,2029.00,2256.90,1982.52,2251.98,599.96,589.05,52.11,0000 0000 0000 0000 000000
2016-06-21 02:48:40,0.04,4.77,0.00,24.60,28.76,31.31,14.27,45.98,1009.89,2029.00,2256.39,1982.13,2251.80,599.99,588.87,52.16,0000 0000 0000 0000 000000
2016-06-21 02:53:42,0.01,4.77,0.00,24.62,28.78,31.34,14.35,46.02,1009.80,2028.97,2256.18,1982.03,2251.34,600.21,589.00,52.21,0000 0000 0000 0000 000000
2016-06-21 02:58:43,0.01,4.77,0.00,24.64,28.80,31.36,14.36,46.21,1009.79,2028.95,2256.01,1982.00,2251.03,600.13,588.85,52.26,0000 0000 0000 0000 000000
2016-06-21 03:03:44,-0.04,4.77,0.00,24.67,28.82,31.37,14.26,45.88,1009.78,2028.68,2256.01,1982.00,2251.00,599.79,588.46,52.32,0000 0000 0000 0000 000000
2016-06-21 03:08:45,-0.04,4.76,0.00,24.71,28.84,31.38,14.25,45.83,1009.78,2028.19,2256.00,1982.00,2251.00,600.49,589.11,52.37,0000 0000 0000 0000 000000
2016-06-21 03:13:47,-0.00,4.76,0.00,24.72,28.86,31.39,14.34,46.07,1009.78,2028.07,2255.99,1981.97,2251.00,600.13,588.64,52.42,0000 0000 0000 0000 000000
2016-06-21 03:18:48,0.00,4.76,0.00,24.75,28.87,31.41,14.37,46.16,1009.76,2028.03,2255.97,1981.93,2250.95,600.38,588.88,52.47,0000 0000 0000 0000 000000
2016-06-21 03:23:49,0.02,4.76,0.00,24.77,28.90,31.42,14.31,46.00,1009.52,2028.01,2255.81,1981.75,2250.89,599.85,588.30,52.52,0000 0000 0000 0000 000000
2016-06-21 03:28:50,0.05,4.77,0.00,24.81,28.91,31.44,14.35,46.05,1009.32,2028.01,2255.37,1981.37,2250.50,600.32,588.49,52.57,0000 0000 0000 0000 000000
2016-06-21 03:33:52,0.02,4.77,0.00,24.82,28.92,31.46,14.26,45.88,1009.29,2028.00,2255.04,1981.07,2250.06,600.05,588.18,52.62,0000 0000 0000 0000 000000
2016-06-21 03:38:53,0.00,4.77,0.00,24.85,28.95,31.47,14.25,46.08,1009.29,2027.99,2255.00,1981.00,2250.00,600.03,588.31,52.67,0000 0000 0000 0000 000000
2016-06-21 03:43:55,0.00,4.77,0.00,24.87,28.96,31.49,14.29,45.74,1009.27,2027.99,2254.98,1981.00,2250.00,600.34,588.39,52.72,0000 0000 0000 0000 000000
2016-06-21 03:48:56,0.01,4.77,0.00,24.89,28.97,31.50,14.27,45.83,1009.22,2027.99,2254.78,1980.99,2250.00,600.02,588.09,52.77,0000 0000 0000 0000 000000
2016-06-21 03:53:57,-0.01,4.77,0.00,24.91,28.99,31.53,14.30,46.10,1009.07,2027.98,2254.77,1980.99,2249.99,599.98,587.85,52.82,0000 0000 0000 0000 000000
2016-06-21 03:58:58,0.01,4.77,0.00,24.95,29.00,31.54,14.22,45.85,1009.01,2027.95,2254.33,1980.98,2249.95,599.74,587.42,52.87,0000 0000 0000 0000 000000
2016-06-21 04:04:00,0.02,4.77,0.00,24.97,29.02,31.54,14.27,45.69,1008.84,2027.94,2254.16,1980.96,2249.82,600.39,587.92,52.92,0000 0000 0000 0000 000000
2016-06-21 04:09:01,0.02,4.77,0.00,25.01,29.03,31.55,14.31,46.00,1008.81,2027.87,2254.00,1980.71,2249.23,599.90,587.40,52.97,0000 0000 0000 0000 000000
2016-06-21 04:14:02,-0.02,4.77,0.00,25.05,29.05,31.56,14.20,45.77,1008.80,2027.56,2254.00,1980.27,2249.05,599.84,587.25,53.02,0000 0000 0000 0000 000000
2016-06-21 04:19:04,0.02,4.77,0.00,25.06,29.05,31.58,14.33,45.97,1008.79,2027.40,2253.95,1980.08,2249.02,600.38,587.76,53.07,0000 0000 0000 0000 000000
2016-06-21 04:24:05,-0.03,4.77,0.00,25.09,29.07,31.58,14.28,45.98,1008.63,2027.12,2253.76,1980.00,2249.00,600.11,587.43,53.12,0000 0000 0000 0000 000000
2016-06-21 04:29:07,0.03,4.77,0.00,25.11,29.07,31.60,14.34,45.96,1008.37,2027.11,2253.07,1980.00,2248.99,600.27,587.13,53.17,0000 0000 0000 0000 000000
2016-06-21 04:34:08,-0.00,4.77,0.00,25.14,29.10,31.60,14.23,46.02,1008.33,2027.06,2253.04,1980.00,2248.97,600.06,586.99,53.22,0000 0000 0000 0000 000000
2016-06-21 04:39:09,0.00,4.77,0.00,25.17,29.10,31.62,14.23,45.83,1008.32,2027.10,2253.00,1980.00,2248.94,599.56,586.32,53.27,0000 0000 0000 0000 000000
2016-06-21 04:44:10,0.00,4.77,0.00,25.19,29.12,31.63,14.20,45.77,1008.32,2027.03,2253.01,1980.00,2248.88,600.36,587.26,53.33,0000 0000 0000 0000 000000
2016-06-21 04:49:11,0.01,4.77,0.00,25.22,29.12,31.64,14.31,45.92,1008.26,2027.00,2253.00,1979.99,2248.56,600.30,586.96,53.38,0000 0000 0000 0000 000000
2016-06-21 04:54:12,0.01,4.77,0.00,25.25,29.15,31.67,14.19,45.89,1008.01,2027.00,2252.92,1979.93,2248.08,600.08,586.57,53.43,0000 0000 0000 0000 000000
2016-06-21 04:59:14,0.00,4.77,0.00,25.27,29.15,31.67,14.27,46.01,1007.90,2027.00,2252.84,1979.90,2248.03,600.49,586.94,53.48,0000 0000 0000 0000 000000
2016-06-21 05:04:15,0.02,4.77,0.00,25.31,29.16,31.69,14.26,45.92,1007.84,2027.00,2252.71,1979.61,2248.01,599.79,586.11,53.53,0000 0000 0000 0000 000000
2016-06-21 05:09:17,0.03,4.77,0.00,25.33,29.17,31.69,14.27,45.95,1007.83,2027.00,2252.27,1979.29,2248.00,600.61,586.83,53.58,0000 0000 0000 0000 000000
2016-06-21 05:14:18,0.01,4.77,0.00,25.36,29.17,31.70,14.20,45.84,1007.83,2027.00,2252.13,1979.11,2248.00,600.23,586.44,53.63,0000 0000 0000 0000 000000
2016-06-21 05:19:19,0.00,4.77,0.00,25.38,29.20,31.71,14.19,45.66,1007.83,2026.99,2252.01,1979.03,2247.99,599.89,586.24,53.68,0000 0000 0000 0000 000000
2016-06-21 05:24:20,-0.00,4.77,0.00,25.41,29.20,31.72,14.23,45.94,1007.73,2026.97,2252.00,1979.00,2247.96,600.15,586.12,53.73,0000 0000 0000 0000 000000
2016-06-21 05:29:22,0.01,4.78,0.00,25.44,29.20,31.72,14.27,45.92,1007.50,2026.98,2251.94,1979.00,2247.85,600.07,585.96,53.78,0000 0000 0000 0000 000000
2016-06-21 05:34:23,0.00,4.78,0.00,25.46,29.22,31.74,14.07,45.71,1007.38,2026.98,2251.90,1979.00,2247.65,599.46,585.15,53.83,0000 0000 0000 0000 000000
2016-06-21 05:39:25,0.02,4.78,0.00,25.49,29.22,31.75,14.16,45.61,1007.36,2026.96,2251.58,1979.00,2247.20,599.95,585.62,53.88,0000 0000 0000 0000 000000
2016-06-21 05:44:26,0.01,4.78,0.00,25.51,29.24,31.76,14.24,46.03,1007.34,2026.91,2251.25,1978.98,2247.03,599.91,585.47,53.93,0000 0000 0000 0000 000000
2016-06-21 05:49:28,0.00,4.78,0.00,25.53,29.25,31.79,14.15,45.86,1007.31,2026.85,2251.07,1978.96,2247.03,599.75,585.32,53.98,0000 0000 0000 0000 000000
2016-06-21 05:54:29,0.00,4.78,0.00,25.56,29.26,31.80,14.18,45.78,1007.02,2026.87,2251.01,1978.89,2247.00,599.77,585.13,54.03,0000 0000 0000 0000 000000
2016-06-21 05:59:30,0.01,4.78,0.00,25.58,29.27,31.79,14.15,45.84,1006.86,2026.81,2251.00,1978.74,2247.00,599.31,584.44,54.08,0000 0000 0000 0000 000000
2016-06-21 06:04:32,-0.02,4.78,0.00,25.61,29.28,31.82,14.21,45.99,1006.85,2026.46,2250.98,1978.35,2246.98,600.19,585.28,54.13,0000 0000 0000 0000 000000
2016-06-21 06:09:33,-0.02,4.78,0.00,25.63,29.30,31.82,14.19,45.83,1006.85,2026.08,2250.85,1978.06,2246.94,600.22,585.24,54.18,0000 0000 0000 0000 000000
2016-06-21 06:14:34,0.01,4.78,0.00,25.66,29.30,31.83,14.19,45.80,1006.83,2026.08,2250.49,1978.02,2246.85,600.10,585.29,54.23,0000 0000 0000 0000 000000
2016-06-21 06:19:35,0.02,4.78,0.00,25.70,29.32,31.84,14.25,45.96,1006.82,2026.09,2250.07,1978.00,2246.48,600.17,585.13,54.28,0000 0000 0000 0000 000000
2016-06-21 06:24:37,0.01,4.78,0.00,25.73,29.32,31.86,14.17,45.93,1006.82,2026.03,2250.02,1978.00,2246.11,599.97,585.03,54.34,0000 0000 0000 0000 000000
2016-06-21 06:29:38,0.00,4.78,0.00,25.75,29.33,31.87,14.21,45.67,1006.72,2026.01,2250.00,1978.00,2246.01,600.28,585.11,54.39,0000 0000 0000 0000 000000
2016-06-21 06:34:40,0.00,4.78,0.00,25.78,29.35,31.89,14.19,45.97,1006.46,2026.01,2249.92,1977.96,2246.00,599.87,584.65,54.44,0000 0000 0000 0000 000000
2016-06-21 06:39:41,0.00,4.78,0.00,25.81,29.35,31.91,14.15,45.74,1006.43,2026.00,2249.68,1977.96,2246.00,600.09,584.59,54.49,0000 0000 0000 0000 000000
2016-06-21 06:44:42,0.01,4.78,0.00,25.84,29.37,31.92,14.15,45.81,1006.39,2026.00,2249.48,1977.87,2245.98,600.28,584.80,54.54,0000 0000 0000 0000 000000
2016-06-21 06:49:44,0.03,4.78,0.00,25.86,29.37,31.95,14.08,45.73,1006.37,2026.00,2249.06,1977.60,2245.96,599.92,584.52,54.59,0000 0000 0000 0000 000000
2016-06-21 06:54:45,0.03,4.78,0.00,25.89,29.39,31.95,14.22,46.16,1006.36,2026.00,2248.99,1977.14,2245.67,600.22,584.52,54.64,0000 0000 0000 0000 000000
2016-06-21 06:59:46,0.03,4.78,0.00,25.92,29.40,31.95,14.32,46.23,1006.35,2026.00,2248.74,1977.01,2245.19,600.35,584.60,54.69,0000 0000 0000 0000 000000
2016-06-21 07:04:48,0.01,4.78,0.00,25.95,29.41,31.96,14.13,45.77,1006.35,2026.00,2248.48,1977.00,2245.05,599.99,584.34,54.74,0000 0000 0000 0000 000000
2016-06-21 07:09:49,0.01,4.78,0.00,25.96,29.42,32.00,14.24,45.98,1006.31,2026.00,2248.04,1977.00,2245.00,600.32,584.33,54.79,0000 0000 0000 0000 000000
2016-06-21 07:14:50,-0.00,4.78,0.00,25.98,29.43,32.00,14.13,45.98,1006.11,2025.98,2248.00,1976.98,2245.00,600.08,584.02,54.84,0000 0000 0000 0000 000000
2016-06-21 07:19:51,-0.01,4.78,0.00,26.01,29.45,32.05,14.14,45.77,1005.95,2025.96,2247.99,1976.96,2244.98,600.33,584.16,54.89,0000 0000 0000 0000 000000
2016-06-21 07:24:53,0.02,4.79,0.00,26.04,29.46,32.05,14.07,45.71,1005.89,2025.92,2247.90,1976.78,2244.87,600.14,584.00,54.94,0000 0000 0000 0000 000000
2016-06-21 07:29:54,0.00,4.79,0.00,26.06,29.47,32.03,14.06,45.44,1005.88,2025.66,2247.57,1976.36,2244.41,600.05,583.86,54.99,0000 0000 0000 0000 000000
2016-06-21 07:34:56,0.04,4.79,0.00,26.09,29.49,32.06,14.19,45.92,1005.88,2025.73,2247.28,1976.18,2244.18,600.02,583.67,55.04,0000 0000 0000 0000 000000
2016-06-21 07:39:56,-0.01,4.79,0.00,26.12,29.50,32.09,14.12,45.73,1005.87,2025.58,2247.04,1976.04,2244.03,599.97,583.62,55.09,0000 0000 0000 0000 000000
2016-06-21 07:44:58,-0.02,4.79,0.00,26.12,29.52,32.11,14.16,45.87,1005.87,2025.24,2247.01,1976.01,2244.01,600.14,583.69,55.14,0000 0000 0000 0000 000000
2016-06-21 07:49:59,-0.01,4.79,0.00,26.14,29.53,32.10,14.09,45.58,1005.87,2025.09,2246.86,1976.00,2244.00,599.49,583.01,55.19,0000 0000 0000 0000 000000
2016-06-21 07:55:00,0.01,4.79,0.00,26.16,29.55,32.10,14.10,45.90,1005.87,2025.03,2246.63,1976.00,2243.97,600.08,583.64,55.25,0000 0000 0000 0000 000000
2016-06-21 08:00:02,0.01,4.79,0.00,26.18,29.56,32.12,14.08,45.76,1005.87,2025.01,2246.13,1975.98,2243.82,599.64,583.09,55.30,0000 0000 0000 0000 000000
2016-06-21 08:05:03,0.01,4.79,0.00,26.20,29.58,32.16,14.16,45.59,1005.84,2025.01,2246.00,1975.92,2243.41,600.16,583.71,55.35,0000 0000 0000 0000 000000
2016-06-21 08:10:04,0.02,4.79,0.00,26.22,29.60,32.19,14.17,45.76,1005.78,2025.00,2246.00,1975.73,2243.14,599.93,583.30,55.40,0000 0000 0000 0000 000000
2016-06-21 08:15:05,0.02,4.79,0.00,26.23,29.61,32.20,14.07,45.77,1005.75,2025.00,2245.96,1975.24,2243.01,600.18,583.48,55.45,0000 0000 0000 0000 000000
2016-06-21 08:20:07,0.02,4.79,0.00,26.24,29.63,32.20,14.26,46.16,1005.48,2024.99,2245.71,1975.07,2243.00,600.14,583.25,55.50,0000 0000 0000 0000 000000
2016-06-21 08:25:08,0.01,4.79,0.00,26.25,29.65,32.22,14.11,45.71,1005.42,2024.97,2245.07,1975.00,2242.93,599.98,582.80,55.55,0000 0000 0000 0000 000000
2016-06-21 08:30:09,-0.01,4.79,0.00,26.27,29.67,32.23,14.13,45.67,1005.39,2024.91,2245.00,1975.00,2242.59,600.14,583.06,55.60,0000 0000 0000 0000 000000
2016-06-21 08:35:10,-0.00,4.79,0.00,26.25,29.69,32.26,14.07,45.73,1005.39,2024.74,2244.98,1974.98,2242.17,599.81,582.81,55.65,0000 0000 0000 0000 000000
2016-06-21 08:40:12,-0.01,4.79,0.00,26.26,29.71,32.26,14.10,45.66,1005.39,2024.45,2244.89,1974.93,2242.02,599.91,583.14,55.70,0000 0000 0000 0000 000000
2016-06-21 08:45:13,0.03,4.79,0.00,26.29,29.72,32.30,14.06,45.51,1005.39,2024.19,2244.25,1974.41,2242.00,600.01,582.99,55.75,0000 0000 0000 0000 000000
2016-06-21 08:50:14,0.00,4.79,0.00,26.30,29.75,32.30,14.09,45.66,1005.38,2024.09,2244.00,1974.03,2241.99,599.47,582.51,55.80,0000 0000 0000 0000 000000
2016-06-21 08:55:15,-0.00,4.79,0.00,26.32,29.76,32.33,14.22,45.76,1005.34,2024.05,2243.91,1974.00,2241.88,600.02,582.91,55.85,0000 0000 0000 0000 000000
2016-06-21 09:00:17,0.01,4.79,0.00,26.34,29.77,32.34,14.13,45.83,1005.19,2024.03,2243.59,1974.00,2241.49,600.15,582.90,55.90,0000 0000 0000 0000 000000
2016-06-21 09:05:18,0.03,4.79,0.00,26.33,29.80,32.37,14.10,45.74,1005.01,2024.00,2243.15,1973.99,2241.06,600.23,582.87,55.95,0000 0000 0000 0000 000000
2016-06-21 09:10:20,0.00,4.79,0.00,26.35,29.82,32.39,14.04,45.64,1004.93,2024.00,2243.00,1973.97,2241.00,599.92,582.50,56.00,0000 0000 0000 0000 000000
2016-06-21 09:15:21,0.04,4.80,0.00,26.37,29.84,32.40,14.14,45.76,1004.91,2024.00,2242.87,1973.46,2240.99,600.04,582.59,56.05,0000 0000 0000 0000 000000
2016-06-21 09:20:22,0.03,4.80,0.00,26.37,29.86,32.42,14.14,45.61,1004.90,2024.00,2242.43,1973.11,2240.86,600.18,582.71,56.10,0000 0000 0000 0000 000000
2016-06-21 09:25:24,0.03,4.80,0.00,26.40,29.87,32.43,14.12,45.74,1004.90,2023.99,2242.02,1973.00,2240.20,600.00,582.62,56.15,0000 0000 0000 0000 000000
2016-06-21 09:30:25,0.00,4.80,0.00,26.40,29.90,32.45,14.00,45.58,1004.90,2023.98,2242.00,1973.00,2240.03,599.55,582.08,56.20,0000 0000 0000 0000 000000
2016-06-21 09:35:26,0.01,4.80,0.00,26.42,29.91,32.47,14.13,45.53,1004.90,2023.96,2241.82,1972.99,2240.00,599.89,582.34,56.25,0000 0000 0000 0000 000000
2016-06-21 09:40:28,-0.01,4.80,0.00,26.42,29.93,32.49,14.10,45.71,1004.88,2023.87,2241.44,1972.98,2240.00,599.90,582.25,56.31,0000 0000 0000 0000 000000
2016-06-21 09:45:29,-0.03,4.80,0.00,26.42,29.95,32.50,14.15,45.76,1004.82,2023.54,2241.08,1972.79,2239.96,600.06,582.31,56.36,0000 0000 0000 0000 000000
2016-06-21 09:50:31,0.03,4.80,0.00,26.43,29.97,32.53,14.17,45.80,1004.60,2023.23,2241.00,1972.31,2239.71,600.27,582.62,56.41,0000 0000 0000 0000 000000
2016-06-21 09:55:32,0.01,4.80,0.00,26.45,29.98,32.54,14.14,45.84,1004.63,2023.16,2240.97,1972.05,2239.15,600.35,582.46,56.46,0000 0000 0000 0000 000000
2016-06-21 10:00:33,0.02,4.80,0.00,26.44,30.00,32.55,14.04,45.68,1004.51,2023.13,2240.58,1972.01,2239.03,599.80,581.88,56.51,0000 0000 0000 0000 000000
2016-06-21 10:05:35,-0.01,4.80,0.00,26.46,30.02,32.56,14.09,45.51,1004.44,2023.06,2240.16,1972.00,2239.00,599.96,581.98,56.56,0000 0000 0000 0000 000000
2016-06-21 10:10:36,0.00,4.80,0.00,26.47,30.02,32.58,14.16,45.84,1004.43,2023.00,2240.02,1972.00,2239.00,600.02,582.10,56.61,0000 0000 0000 0000 000000
2016-06-21 10:15:37,0.00,4.80,0.00,26.47,30.05,32.60,14.13,45.87,1004.41,2023.00,2240.00,1971.98,2239.00,599.97,581.98,56.66,0000 0000 0000 0000 000000
2016-06-21 10:20:38,0.01,4.80,0.00,26.48,30.06,32.64,14.13,45.90,1004.41,2023.00,2239.97,1971.90,2238.95,599.88,581.75,56.71,0000 0000 0000 0000 000000
2016-06-21 10:25:40,0.05,4.80,0.00,26.46,30.07,32.65,14.09,45.66,1004.41,2023.00,2239.50,1971.46,2238.55,600.54,582.52,56.76,0000 0000 0000 0000 000000
2016-06-21 10:30:41,0.03,4.81,0.00,26.46,30.08,32.68,14.11,45.79,1004.41,2023.00,2239.09,1971.15,2238.18,599.95,582.06,56.81,0000 0000 0000 0000 000000
2016-06-21 10:35:43,0.00,4.81,0.00,26.46,30.10,32.72,14.23,45.92,1004.41,2022.98,2239.00,1971.02,2238.02,600.14,582.24,56.86,0000 0000 0000 0000 000000
2016-06-21 10:40:44,0.00,4.81,0.00,26.48,30.11,32.73,14.08,45.85,1004.40,2022.97,2238.99,1971.00,2238.00,599.55,581.58,56.91,0000 0000 0000 0000 000000
2016-06-21 10:45:45,0.01,4.81,0.00,26.45,30.12,32.78,14.11,45.48,1004.30,2022.96,2238.73,1970.99,2237.98,599.76,581.79,56.96,0000 0000 0000 0000 000000
2016-06-21 10:50:47,0.01,4.81,0.00,26.45,30.12,32.78,14.07,45.55,1004.22,2022.94,2238.12,1970.97,2237.89,600.16,582.21,57.01,0000 0000 0000 0000 000000
2016-06-21 10:55:48,0.02,4.81,0.00,26.47,30.14,32.78,14.11,45.49,1004.20,2022.90,2238.00,1970.85,2237.31,600.07,582.03,57.06,0000 0000 0000 0000 000000
2016-06-21 11:00:49,0.02,4.81,0.00,26.46,30.15,32.82,14.07,45.68,1004.10,2022.85,2238.00,1970.46,2237.06,600.17,582.06,57.11,0000 0000 0000 0000 000000
2016-06-21 11:05:51,0.00,4.81,0.00,26.46,30.15,32.83,14.17,45.73,1003.95,2022.68,2237.84,1970.09,2237.00,600.48,582.23,57.16,0000 0000 0000 0000 000000
2016-06-21 11:10:52,-0.01,4.81,0.00,26.46,30.17,32.86,14.10,45.53,1003.95,2022.41,2237.26,1970.01,2236.99,599.53,581.25,57.22,0000 0000 0000 0000 000000
2016-06-21 11:15:53,-0.02,4.81,0.00,26.44,30.17,32.91,14.05,45.55,1003.93,2022.19,2237.01,1970.00,2236.96,599.92,581.71,57.27,0000 0000 0000 0000 000000
2016-06-21 11:20:55,0.01,4.81,0.00,26.45,30.17,32.89,14.16,45.60,1003.92,2022.15,2237.00,1970.00,2236.82,600.26,582.07,57.32,0000 0000 0000 0000 000000
2016-06-21 11:25:56,0.00,4.81,0.00,26.44,30.18,32.97,14.13,45.68,1003.92,2022.06,2236.93,1969.99,2236.38,600.16,582.01,57.37,0000 0000 0000 0000 000000
2016-06-21 11:30:57,0.03,4.81,0.00,26.44,30.20,32.99,14.10,45.55,1003.87,2022.05,2236.36,1969.95,2236.04,599.84,581.58,57.42,0000 0000 0000 0000 000000
2016-06-21 11:35:58,0.01,4.81,0.00,26.46,30.20,32.99,14.13,45.75,1003.54,2022.08,2236.07,1969.89,2236.02,599.83,581.41,57.47,0000 0000 0000 0000 000000
2016-06-21 11:41:00,0.01,4.81,0.00,26.47,30.20,32.94,14.04,45.49,1003.44,2022.01,2236.01,1969.44,2236.00,599.88,581.34,57.52,0000 0000 0000 0000 000000
2016-06-21 11:46:00,0.01,4.81,0.00,26.50,30.20,32.88,14.04,45.59,1003.43,2022.01,2236.00,1969.08,2235.99,599.66,581.06,57.57,0000 0000 0000 0000 000000
2016-06-21 11:51:02,0.01,4.81,0.00,26.53,30.20,32.88,14.12,45.71,1003.43,2022.00,2235.78,1969.01,2235.94,600.13,581.63,57.62,0000 0000 0000 0000 000000
2016-06-21 11:56:03,0.04,4.82,0.00,26.56,30.22,32.86,14.10,45.78,1003.43,2022.02,2235.12,1968.99,2235.33,599.77,581.11,57.67,0000 0000 0000 0000 000000
2016-06-21 12:01:04,0.04,4.82,0.00,26.57,30.22,32.90,14.14,45.67,1003.32,2022.01,2234.45,1968.84,2235.00,599.83,581.11,57.72,0000 0000 0000 0000 000000
2016-06-21 12:06:05,0.08,4.82,0.00,26.60,30.22,32.90,14.13,45.67,1003.12,2022.01,2233.55,1968.12,2234.57,599.91,580.97,57.77,0000 0000 0000 0000 000000
2016-06-21 12:11:07,0.04,4.82,0.00,26.61,30.24,32.91,14.07,45.61,1002.97,2022.01,2232.44,1967.97,2234.01,600.17,581.07,57.82,0000 0000 0000 0000 000000
2016-06-21 12:16:07,0.01,4.83,0.00,26.61,30.25,32.93,14.07,45.45,1002.94,2022.00,2232.04,1967.88,2233.97,599.91,580.81,57.87,0000 0000 0000 0000 000000
2016-06-21 12:21:09,0.03,4.83,0.00,26.61,30.25,32.91,14.04,45.61,1002.94,2022.00,2232.01,1967.51,2233.79,600.09,580.99,57.92,0000 0000 0000 0000 000000
2016-06-21 12:26:10,0.03,4.83,0.00,26.61,30.27,32.97,14.14,45.72,1002.94,2022.00,2231.91,1967.07,2233.15,600.34,581.29,57.97,0000 0000 0000 0000 000000
2016-06-21 12:31:11,0.01,4.83,0.00,26.60,30.27,33.00,14.13,45.82,1002.88,2022.00,2231.57,1967.01,2233.01,600.46,581.36,58.02,0000 0000 0000 0000 000000
2016-06-21 12:36:13,0.01,4.83,0.00,26.59,30.29,33.00,14.10,45.65,1002.57,2022.00,2231.08,1967.00,2233.00,600.26,580.90,58.07,0000 0000 0000 0000 000000
2016-06-21 12:41:14,0.00,4.83,0.00,26.59,30.30,33.02,14.04,45.74,1002.47,2022.00,2231.01,1966.99,2232.99,599.67,580.48,58.12,0000 0000 0000 0000 000000
2016-06-21 12:46:15,0.00,4.83,0.00,26.58,30.30,33.05,14.10,45.88,1002.47,2021.99,2231.00,1966.97,2232.94,599.90,580.72,58.17,0000 0000 0000 0000 000000
2016-06-21 12:51:17,0.01,4.83,0.00,26.58,30.30,33.07,14.19,46.12,1002.45,2021.98,2230.98,1966.89,2232.73,600.00,580.75,58.22,0000 0000 0000 0000 000000
2016-06-21 12:56:18,0.04,4.83,0.00,26.54,30.32,33.08,14.07,45.95,1002.36,2021.96,2230.73,1966.55,2232.26,600.09,580.88,58.28,0000 0000 0000 0000 000000